Regional Weather Roundup
Issued by NWS

Home | Current Version | Previous Version | Text Only | Print | Product List | Glossary On
Versions: 1 2 3 4 5 6 7 8 9 10 11 12 13 14 15 16 17 18 19 20 21 22 23 24 25 26 27 28 29 30 31 32 33 34 35 36 37 38 39 40 41 42 43 44 45 46 47 48 49 50
000
ASUS43 KLSX 181607
RWRMO

WEATHER SUMMARY FOR MISSOURI
NATIONAL WEATHER SERVICE SPRINGFIELD MO
1000 AM CST MON DEC 18 2017

NOTE: "FAIR" INDICATES FEW OR NO CLOUDS BELOW 12,000 FEET WITH NO
       SIGNIFICANT WEATHER AND/OR OBSTRUCTIONS TO VISIBILITY.
       CURRENT SKY AND/OR WEATHER CONDITIONS ARE NOT AVAILABLE FOR
       CHILLICOTHE AND FARMINGTON.

MOZ001>031-035>038-043-044-053-054-181700-
...NORTHERN AND WESTERN MISSOURI...

CITY           SKY/WX    TMP DP  RH WIND       PRES   REMARKS
KANSAS CTY INT MOSUNNY   39  38  96 SW10      30.07S FOG
KANSAS C DTWN  SUNNY     44  36  73 SW9       30.09R
LEE`S SUMMIT   MOSUNNY   43  40  89 SW13      30.09R
ST JOSEPH      SUNNY     40  37  89 SW10      30.06R FOG
CHILLICOTHE      N/A     43  38  82 SW8       30.06S
KIRKSVILLE     MOSUNNY   44  39  82 SW8       30.04R

$$
MOZ066>068-077>081-088>096-101>105-181700-
...SOUTHWEST MISSOURI...

CITY           SKY/WX    TMP DP  RH WIND       PRES   REMARKS
SPRINGFIELD    CLOUDY    47  42  83 SW10      30.14R
JOPLIN         CLOUDY    44  42  93 SW17      30.17R
BRANSON        CLOUDY    45  39  81 W7        30.18R

$$
MOZ032>034-039>042-045>050-055>058-069>072-181700-
...CENTRAL MISSOURI...

CITY           SKY/WX    TMP DP  RH WIND       PRES   REMARKS
COLUMBIA       CLOUDY    47  43  86 SW16      30.08S
JEFFERSON CITY CLOUDY    48  42  80 SW10      30.10S
ROLLA          CLOUDY    45  41  86 SW10      30.11S
SEDALIA        CLOUDY    46  42  86 SW13      30.11S
WARRENSBURG    MOSUNNY   43  39  87 SW12      30.10R
OSAGE BEACH    PTSUNNY   48  42  80 SW10      30.12S

$$
MOZ051-052-059>065-181700-
...EAST CENTRAL MISSOURI...

CITY           SKY/WX    TMP DP  RH WIND       PRES   REMARKS
ST LOUIS INTL  CLOUDY    48  42  80 SW10G21   30.10R
SPIRIT OF STL  CLOUDY    48  42  80 SW8       30.10R
ST CHARLES     CLOUDY    48  41  76 SW12      30.09R

$$
MOZ072>076-082>087-097>100-106>115-181700-
...SOUTH CENTRAL AND SOUTHEAST MISSOURI...

CITY           SKY/WX    TMP DP  RH WIND       PRES   REMARKS
CAPE GIRARDEAU CLOUDY    47  44  90 SW9       30.16S
FARMINGTON     CLOUDY    47  42  83 VRB7      30.14R
POPLAR BLUFF   CLOUDY    46  46 100 SW10      30.17S FOG
WEST PLAINS    CLOUDY    47  40  76 W9        30.16R

$$



USA.gov is the U.S. government's official web portal to all federal, state and local government web resources and services.